Whidbey Island, WA

7:24 PM PST on January 20, 2018 (GMT -0800)
Whidbey Island Naval Air Station

Weather History for KNUW - August, 2013

Change the Weather History Date:

Friday, August 2, 2013

  Actual Average Record
Temperature  
Mean Temperature 57 °F -  
Max Temperature 60 °F 64 °F 79 °F (2017)
Min Temperature 55 °F 50 °F 48 °F (1999)
Degree Days  
Heating Degree Days 8    
Growing Degree Days 7 (Base 50)    
Moisture  
Dew Point 55 °F    
Average Humidity 92    
Maximum Humidity 100    
Minimum Humidity 82    
Precipitation  
Precipitation 0.26 in - - ()
Sea Level Pressure  
Sea Level Pressure 30.12 in    
Wind  
Wind Speed 5 mph (South)    
Max Wind Speed 9 mph    
Max Gust Speed -    
Visibility 6 miles    
Events Rain , Thunderstorm    
Averages and records for this station are not official NWS values.
T = Trace of Precipitation, MM = Missing Value Source: NWS Daily Summary

Daily Weather History Graph

Daily Weather History Graph

Search for Another Location

Airport or City:

Trip Planner

Search our weather history database for the weather conditions in past years. The results will help you decide how hot, cold, wet, or windy it might be!

Date:

Astronomy

Aug. 02, 2013 Rise Set
Actual Time 5:47 AM PDT 8:45 PM PDT
Civil Twilight 5:10 AM PDT 9:21 PM PDT
Nautical Twilight 4:23 AM PDT 10:08 PM PDT
Astronomical Twilight 3:25 AM PDT 11:05 PM PDT
Moon 2:09 AM PDT (8/2) 5:50 PM PDT (8/2)
Length of Visible Light 16h 10m
Length of Day
14h 57m
Waning Crescent, 15% of the Moon is Illuminated
Aug 2
Waning Crescent
Aug 6
New
Aug 14
First Quarter
Aug 20
Full
Aug 28
Last Quarter

Hourly Weather History & Observations

Time (PDT) Temp. Dew Point Humidity Pressure Visibility Wind Dir Wind Speed Gust Speed Precip Events Conditions
12:56 AM 57.0 °F 52.0 °F 83% 30.09 in 10.0 mi South 4.6 mph - N/A   Overcast
1:56 AM 57.0 °F 52.0 °F 83% 30.09 in 10.0 mi SSW 4.6 mph - N/A   Overcast
2:30 AM 57.2 °F 51.8 °F 82% 30.07 in 10.0 mi SSW 5.8 mph - N/A Thunderstorm Thunderstorm
2:47 AM 55.4 °F 53.6 °F 94% 30.06 in 9.0 mi SSW 6.9 mph - 0.00 in Rain , Thunderstorm Light Thunderstorms and Rain
2:56 AM 55.9 °F 53.1 °F 90% 30.08 in 6.0 mi SW 6.9 mph - 0.02 in Rain , Thunderstorm Light Thunderstorms and Rain
3:56 AM 55.9 °F 53.1 °F 90% 30.09 in 10.0 mi SW 4.6 mph - 0.02 in   Overcast
4:56 AM 55.9 °F 53.1 °F 90% 30.09 in 10.0 mi SSW 6.9 mph - N/A   Overcast
5:16 AM 55.4 °F 53.6 °F 94% 30.07 in 10.0 mi SSW 5.8 mph - 0.00 in Rain Light Rain
5:44 AM 55.4 °F 53.6 °F 94% 30.07 in 8.0 mi SSW 5.8 mph - 0.00 in   Overcast
5:55 AM 57.0 °F 53.1 °F 87% 30.09 in 8.0 mi SSW 5.8 mph - 0.00 in   Overcast
6:56 AM 57.0 °F 53.1 °F 87% 30.10 in 8.0 mi SSE 4.6 mph - N/A   Overcast
7:39 AM 57.2 °F 53.6 °F 88% 30.10 in 8.0 mi SSE 5.8 mph - 0.00 in Rain Light Rain
7:56 AM 57.0 °F 54.0 °F 89% 30.11 in 8.0 mi Variable 5.8 mph - 0.00 in Rain Light Rain
8:08 AM 57.2 °F 53.6 °F 88% 30.10 in 8.0 mi SE 4.6 mph - 0.00 in   Overcast
8:28 AM 57.2 °F 53.6 °F 88% 30.10 in 8.0 mi SE 5.8 mph - 0.00 in Rain Light Rain
8:56 AM 57.0 °F 55.0 °F 93% 30.12 in 7.0 mi ESE 4.6 mph - 0.00 in Rain Light Rain
9:53 AM 57.2 °F 55.4 °F 94% 30.11 in 5.0 mi East 5.8 mph - 0.09 in Rain Light Rain
9:56 AM 57.0 °F 55.0 °F 93% 30.12 in 5.0 mi East 5.8 mph - 0.09 in Rain Light Rain
10:07 AM 57.2 °F 55.4 °F 94% 30.11 in 5.0 mi ESE 5.8 mph - 0.00 in Rain Light Rain
10:56 AM 57.9 °F 57.0 °F 97% 30.13 in 1.8 mi SSE 3.5 mph - 0.08 in Rain Rain
11:13 AM 57.2 °F 57.2 °F 100% 30.11 in 1.8 mi Calm Calm - 0.01 in Rain Rain
11:36 AM 59.0 °F 57.2 °F 94% 30.12 in 2.0 mi ESE 4.6 mph - 0.02 in Rain Light Rain
11:56 AM 57.9 °F 55.9 °F 93% 30.14 in 2.0 mi SSE 9.2 mph - 0.02 in Rain Light Rain
12:21 PM 59.0 °F 55.4 °F 88% 30.13 in 2.0 mi SSE 6.9 mph - 0.00 in Rain Light Rain
12:56 PM 59.0 °F 57.0 °F 93% 30.14 in 3.0 mi SSE 8.1 mph - 0.00 in Rain Light Rain
1:56 PM 59.0 °F 57.0 °F 93% 30.15 in 3.0 mi SSE 6.9 mph - 0.01 in Rain Light Rain
2:56 PM 55.9 °F 55.0 °F 97% 30.15 in 2.0 mi NW 3.5 mph - 0.01 in Rain Light Rain
3:02 PM 55.4 °F 55.4 °F 100% 30.14 in 0.8 mi WNW 3.5 mph - 0.00 in Rain Light Rain
3:56 PM 55.9 °F 55.9 °F 100% 30.15 in 0.1 mi Calm Calm - 0.01 in Rain Light Rain
4:56 PM 59.0 °F 57.0 °F 93% 30.14 in 3.0 mi West 4.6 mph - 0.00 in Rain Light Rain
5:34 PM 57.2 °F 55.4 °F 94% 30.13 in 6.0 mi WSW 4.6 mph - 0.00 in   Overcast
5:56 PM 57.0 °F 55.0 °F 93% 30.14 in 6.0 mi WSW 3.5 mph - 0.00 in   Overcast
6:56 PM 57.0 °F 55.0 °F 93% 30.15 in 10.0 mi Calm Calm - N/A   Overcast
7:56 PM 57.0 °F 55.0 °F 93% 30.15 in 10.0 mi Calm Calm - N/A   Overcast
8:56 PM 57.0 °F 54.0 °F 89% 30.16 in 10.0 mi Calm Calm - N/A   Overcast
9:56 PM 57.9 °F 55.0 °F 90% 30.16 in 10.0 mi Calm Calm - N/A   Overcast
10:56 PM 57.9 °F 55.0 °F 90% 30.16 in 10.0 mi Calm Calm - N/A   Overcast
11:56 PM 57.0 °F 55.9 °F 96% 30.16 in 10.0 mi Calm Calm - N/A   Overcast